User: anonymous   Login
Location: Frizzleburg
(41.0764°N, 80.4548°W)
Time: 20:08:35
(UTC+00:00)
Language:

USA 215 - Orbit

View from above orbital plane
View from above orbital plane
View from above satellite
View from above satellite

Ground track
Ground track

The orbit data is extracted from the following two-line orbital elements,

1 37162U 10046A   20003.99697816 0.00000000  00000-0  00000-0 0    03
2 37162 122.9889 184.0731 0006546  65.7613 294.2387 13.41416907    04
Epoch (UTC): 03 January 2020 23:55:38
Eccentricity: 0.0006546
inclination: 122.9889°
perigee height: 1099 km
apogee height: 1109 km
right ascension of ascending node: 184.0731°
argument of perigee: 65.7613°
revolutions per day: 13.41416907
mean anomaly at epoch: 294.2387°
orbit number at epoch: 0

The dashed part of the orbit path shows where the satellite is in the earth's shadow,  

DLR